Flag for Algeria Weather past 2 weeks in Constantine, Algeria

48 °F

Passing clouds.

Feels Like: 47 °F
Forecast: 39 / 58 °F
Wind: 3 mph from East

Location: Constantine Airport

Current Time: Nov 29, 2015 at 9:44:19 AM

Latest Report: Nov 29, 2015 at 9:30 AM

Visibility: N/A

Pressure: 30.45 "Hg (28.46 "Hg at 557m altitude)

Humidity: 82%

Dew point: 43 °F

Location of ConstantineLocation

Historic Weather in Constantine — Graph


Constantine temperature yesterday

Maximum temperature yesterday: 55 °F (at 3:00 PM)
Minimum temperature yesterday: 37 °F (at 6:30 AM)
Average temperature yesterday: 46 °F

Past Weeks' High & Low Weather Summary

High70 °F (Nov 16, 2:00 PM)100% (Nov 23, 6:00 AM)30.45 "Hg (Nov 23, 6:00 AM)
Low36 °F (Nov 23, 6:00 AM)21% (Nov 16, 2:00 PM)29.71 "Hg (Nov 21, 5:00 PM)
Average50 °F77%30.13 "Hg
* Reported Nov 14 7:30 AM — Nov 29 7:30 AM, Constantine, Weather by CustomWeather, © 2015

Note: Actual official high and low records may vary slightly from our data, if they occured in-between our weather recording intervals... More about our weather records


Constantine weather history for previous 24 hours

Time TempWeatherWind HumidityBarometerVisibility
7:30 AM
Sun, Nov 29
37 °FPassing clouds.2 mph93%30.39 "HgN/A
7:00 AM37 °FClear.No wind87%30.39 "Hg10 mi
6:00 AM39 °FClear.2 mph87%30.36 "Hg10 mi
5:30 AM37 °FClear.2 mph93%30.36 "Hg10 mi
5:00 AM39 °FClear.2 mph93%30.36 "Hg10 mi
4:30 AM39 °FClear.No wind87%30.33 "Hg10 mi
4:00 AM39 °FClear.2 mph87%30.33 "Hg10 mi
3:30 AM39 °FClear.6 mph87%30.33 "Hg10 mi
3:00 AM39 °FClear.No wind93%30.33 "Hg10 mi
2:30 AM41 °FClear.2 mph93%30.30 "Hg10 mi
2:00 AM41 °FClear.5 mph87%30.30 "Hg10 mi
1:30 AM41 °FClear.2 mph87%30.33 "Hg10 mi
1:00 AM41 °FClear.No wind87%30.33 "Hg10 mi
12:30 AM41 °FClear.6 mph87%30.30 "Hg10 mi
12:00 AM39 °FClear.No wind87%30.30 "Hg10 mi
11:00 PM
Sat, Nov 28
39 °FClear.No wind87%30.30 "Hg10 mi
10:30 PM41 °FClear.No wind87%30.27 "Hg10 mi
10:00 PM41 °FClear.No wind87%30.27 "Hg10 mi
9:30 PM41 °FClear.No wind81%30.27 "Hg10 mi
9:00 PM43 °FClear.No wind81%30.27 "Hg10 mi
8:30 PM43 °FClear.No wind81%30.24 "Hg10 mi
8:00 PM43 °FClear.2 mph76%30.24 "Hg10 mi
7:30 PM43 °FClear.2 mph81%30.21 "Hg10 mi
7:00 PM45 °FClear.5 mph76%30.21 "Hg10 mi
6:30 PM45 °FClear.5 mph76%30.21 "Hg10 mi
6:00 PM46 °FPassing clouds.2 mph76%30.21 "HgN/A
5:30 PM48 °FPassing clouds.5 mph66%30.21 "HgN/A
5:00 PM52 °FPassing clouds.3 mph62%30.21 "HgN/A
4:30 PM54 °FPassing clouds.6 mph58%30.18 "HgN/A
4:00 PM54 °FPassing clouds.7 mph58%30.18 "HgN/A
3:30 PM54 °FScattered clouds.9 mph58%30.15 "HgN/A
3:00 PM55 °FScattered clouds.6 mph51%30.18 "HgN/A
2:30 PM54 °FScattered clouds.5 mph54%30.15 "HgN/A
2:00 PM54 °FScattered clouds.3 mph58%30.15 "HgN/A
1:30 PM54 °FScattered clouds.7 mph54%30.15 "HgN/A
1:00 PM54 °FScattered clouds.6 mph58%30.15 "HgN/A
12:30 PM52 °FPassing clouds.6 mph67%30.15 "HgN/A
12:00 PM52 °FPassing clouds.6 mph62%30.18 "HgN/A
11:30 AM50 °FPassing clouds.6 mph67%30.18 "HgN/A
11:00 AM50 °FPassing clouds.6 mph71%30.18 "HgN/A
10:30 AM46 °FPassing clouds.5 mph76%30.18 "HgN/A
10:00 AM48 °FPassing clouds.2 mph71%30.15 "HgN/A
9:30 AM46 °FPassing clouds.1 mph82%30.15 "HgN/A
9:00 AM43 °FScattered clouds.2 mph87%30.15 "HgN/A
Weather by CustomWeather, © 2015

See weather overviewHow to use our weather pages